COSMOS 2251 DEB, 39583

Orbit data source: Space-Track

COSMOS 2251 DEB, 39583 is space debris in LEO originally from a launch on Wed, 16 Jun 1993 UTC launched from the Plesetsk Missile And Space Complex (PKMTR). The debris from Iridium 33, an American commercial communications satellite, has been tracked extensively since its accidental collision with the defunct Russian satellite Cosmos 2251 in 2009. This event, occurring at high speed in low Earth orbit (LEO), generated thousands of pieces of space debris, significantly increasing the risk of further collisions. The Iridium 33 debris cloud has impacted space traffic management and orbital debris mitigation strategies, making it a subject of ongoing study in space situational awareness.

Loading next visibility...
Identifier
39583, 1993-036BUN
Orbit
LEO
Country
Flag of CISCIS
Related business
Manufacturer
Unknown
Mission
Spacecraft
Bus & Motor
Unknown
Mass
Unknown
Launch date (UTC)
1993-06-16 (33 years ago)
Launch vehicle
Unknown
Launch site
Plesetsk Missile And Space Complex (PKMTR)
Object type
Payload
Rocket body
Debris
Shape & HBR
Unknown shape, 0.1 m
Radar Cross Section
Small (<0.1 m²)

Expand to show TLE details & history
Last TLE update: 2 days ago

TLE from 2 days ago
0 COSMOS 2251 DEB
1 39583U 93036BUN 25352.42446655  .00007803  00000-0  14121-2 0  9991
2 39583  73.9324 236.2973 0136923 348.5451  11.2605 14.60542257618628
Epoch: 2025-12-18T10:11Z
TLE epoch observation values (Epoch: 2025-12-18T10:11:13.909Z)
Latitude
-0°
Longitude
-3.79083°
Altitude
599.159 km
Speed
7.611 km/s
True Right ascension
15h 45m 11s
True Declination
0° 00' 00"
Sunlit
Object was in daylight at epoch
Visualization orbit readout
Latitude
Unknown
Longitude
Unknown
Altitude
Unknown
Speed
Unknown
Apparent Right ascension
Unknown
Apparent Declination
Unknown
Sunlit
N/A
Visualization observer readout
Local Sidereal Time
07:17:56
Azimuth
Unknown
Elevation
Unknown
Doppler factor
Unknown
Orbital elements
Apogee altitude
785.795 km
Perigee altitude
592.263 km
Semi-major axis
7,067.166 km
Eccentricity
0.01369
Inclination
73.9324°
RAAN
236.2973°
Arg. of periapsis
348.5451°
True anomaly
11.57211°
Mean anomaly
11.2605°
Eccentric anomaly
11.41578°
Mean motion
3.65322 °/min
Orbital period
98.54 mins
BSTAR
0.0014121
Loading maneuver chart data...
Computing Atmospheric mass density...

Documentation

Showing up to 5 results
|